| time (UTC) | temp C | wind direction | speed KPH | gust KPH | rain 1hr cm | rain 24hr cm | rain mn cm | humidity % | barometer mb |
| 20260506082723 | 7 | 255 | 27.4 | 40.2 | 0.00 | 0.00 | 0.00 | 35 | 1011.9 |
| 20260506080722 | 7 | 253 | 27.4 | 38.6 | 0.00 | 0.00 | 0.00 | 35 | 1011.7 |
| 20260506072723 | 7 | 261 | 24.1 | 32.2 | 0.00 | 0.00 | 0.00 | 37 | 1011.5 |
| 20260506070722 | 6 | 255 | 24.1 | 33.8 | 0.00 | 0.00 | 0.00 | 44 | 1011.3 |
| 20260506060722 | 5 | 288 | 14.5 | 24.1 | 0.00 | 0.00 | 0.00 | 52 | 1011.1 |
| 20260506050722 | 3 | 261 | 12.9 | 17.7 | 0.00 | 0.00 | 0.00 | 72 | 1010.7 |
| 20260506044722 | 3 | 257 | 12.9 | 17.7 | 0.00 | 0.00 | 0.00 | 73 | 1010.5 |
| 20260506042722 | 2 | 256 | 12.9 | 17.7 | 0.00 | 0.00 | 0.00 | 77 | 1010.4 |
| 20260506040721 | 2 | 247 | 12.9 | 16.1 | 0.00 | 0.00 | 0.00 | 83 | 1010.2 |
| 20260506034722 | 1 | 252 | 9.7 | 11.3 | 0.00 | 0.00 | 0.00 | 88 | 1010.1 |
| 20260506032721 | 0 | 247 | 9.7 | 11.3 | 0.00 | 0.00 | 0.00 | 90 | 1009.9 |
| 20260506030722 | 0 | 242 | 8.0 | 9.7 | 0.00 | 0.00 | 0.00 | 92 | 1009.7 |
| 20260506024721 | -1 | 238 | 9.7 | 12.9 | 0.00 | 0.00 | 0.00 | 91 | 1009.5 |
| 20260506022721 | 0 | 243 | 8.0 | 11.3 | 0.00 | 0.00 | 0.00 | 91 | 1009.1 |
| 20260506020721 | 0 | 258 | 12.9 | 14.5 | 0.00 | 0.00 | 0.00 | 92 | 1009.1 |
| 20260506014721 | 0 | 262 | 12.9 | 16.1 | 0.00 | 0.00 | 0.00 | 89 | 1008.9 |
| 20260506012721 | 0 | 266 | 12.9 | 17.7 | 0.00 | 0.00 | 0.00 | 88 | 1008.8 |
| 20260506010721 | 0 | 253 | 14.5 | 20.9 | 0.00 | 0.00 | 0.00 | 89 | 1008.6 |
| 20260506004721 | 0 | 247 | 11.3 | 12.9 | 0.00 | 0.00 | 0.00 | 90 | 1008.4 |
| 20260506002721 | 0 | 255 | 12.9 | 17.7 | 0.00 | 0.00 | 0.00 | 87 | 1008.2 |
| 20260506000721 | -1 | 241 | 12.9 | 16.1 | 0.00 | 0.00 | 0.00 | 88 | 1008.3 |
| 20260505234721 | 0 | 230 | 12.9 | 14.5 | 0.00 | 0.00 | 0.00 | 86 | 1008.1 |
| 20260505232721 | 0 | 234 | 12.9 | 14.5 | 0.00 | 0.00 | 0.00 | 86 | 1008.2 |
| 20260505230721 | 0 | 249 | 12.9 | 14.5 | 0.00 | 0.00 | 0.00 | 85 | 1008.1 |
| 20260505224720 | 0 | 259 | 9.7 | 12.9 | 0.00 | 0.00 | 0.00 | 83 | 1008.0 |
| 20260505222720 | 1 | 263 | 11.3 | 14.5 | 0.00 | 0.00 | 0.00 | 78 | 1007.8 |
| 20260505220721 | 2 | 265 | 14.5 | 20.9 | 0.00 | 0.00 | 0.00 | 74 | 1007.7 |
| 20260505214721 | 2 | 267 | 9.7 | 14.5 | 0.00 | 0.00 | 0.00 | 72 | 1007.7 |
| 20260505212721 | 2 | 266 | 12.9 | 19.3 | 0.00 | 0.00 | 0.00 | 68 | 1007.6 |
| 20260505210720 | 2 | 273 | 14.5 | 19.3 | 0.00 | 0.00 | 0.00 | 65 | 1007.4 |
| 20260505204720 | 3 | 272 | 16.1 | 20.9 | 0.00 | 0.00 | 0.00 | 63 | 1007.2 |
| 20260505202721 | 3 | 278 | 16.1 | 22.5 | 0.00 | 0.00 | 0.00 | 60 | 1007.0 |
| 20260505200720 | 3 | 275 | 17.7 | 24.1 | 0.00 | 0.00 | 0.00 | 60 | 1006.9 |
| 20260505194720 | 4 | 277 | 17.7 | 25.7 | 0.00 | 0.00 | 0.00 | 56 | 1006.8 |
| 20260505192720 | 4 | 271 | 14.5 | 22.5 | 0.00 | 0.00 | 0.00 | 54 | 1006.8 |
| 20260505190720 | 5 | 268 | 14.5 | 24.1 | 0.00 | 0.00 | 0.00 | 52 | 1006.6 |
| 20260505184720 | 5 | 271 | 16.1 | 22.5 | 0.00 | 0.00 | 0.00 | 49 | 1006.3 |
| 20260505182720 | 5 | 272 | 17.7 | 27.4 | 0.00 | 0.00 | 0.00 | 46 | 1006.0 |
| 20260505180720 | 6 | 270 | 20.9 | 29.0 | 0.00 | 0.00 | 0.00 | 46 | 1005.8 |
| 20260505174719 | 6 | 272 | 20.9 | 29.0 | 0.00 | 0.00 | 0.00 | 47 | 1005.6 |
| 20260505172719 | 6 | 276 | 19.3 | 29.0 | 0.00 | 0.00 | 0.00 | 46 | 1005.5 |
| 20260505170719 | 7 | 282 | 20.9 | 27.4 | 0.00 | 0.00 | 0.00 | 46 | 1005.4 |
| 20260505164719 | 7 | 271 | 20.9 | 29.0 | 0.00 | 0.00 | 0.00 | 45 | 1005.1 |
| 20260505162719 | 7 | 284 | 16.1 | 25.7 | 0.00 | 0.00 | 0.00 | 43 | 1005.1 |
| 20260505160719 | 7 | 270 | 19.3 | 25.7 | 0.00 | 0.00 | 0.00 | 45 | 1004.9 |
| 20260505152719 | 8 | 258 | 22.5 | 37.0 | 0.00 | 0.00 | 0.00 | 40 | 1004.6 |
| 20260505150719 | 8 | 272 | 17.7 | 30.6 | 0.00 | 0.00 | 0.00 | 41 | 1004.6 |
| 20260505124718 | 7 | 282 | 20.9 | 32.2 | 0.00 | 0.00 | 0.00 | 44 | 1004.0 |
| 20260505122718 | 8 | 258 | 27.4 | 43.5 | 0.00 | 0.00 | 0.00 | 42 | 1003.8 |
| 20260505120718 | 8 | 265 | 27.4 | 33.8 | 0.00 | 0.00 | 0.00 | 43 | 1003.6 |
| 20260505114718 | 7 | 267 | 27.4 | 45.1 | 0.00 | 0.00 | 0.00 | 43 | 1003.6 |
| 20260505112718 | 7 | 265 | 30.6 | 43.5 | 0.00 | 0.00 | 0.00 | 44 | 1003.4 |
| 20260505110718 | 7 | 277 | 20.9 | 40.2 | 0.00 | 0.00 | 0.00 | 48 | 1003.2 |
| 20260505100718 | 7 | 261 | 19.3 | 35.4 | 0.00 | 0.00 | 0.00 | 52 | 1002.6 |
| 20260505094717 | 6 | 266 | 20.9 | 33.8 | 0.00 | 0.00 | 0.00 | 63 | 1002.6 |
| 20260505092717 | 5 | 300 | 16.1 | 24.1 | 0.00 | 0.00 | 0.00 | 67 | 1002.5 |
| 20260505090717 | 6 | 279 | 24.1 | 35.4 | 0.00 | 0.00 | 0.00 | 66 | 1002.3 |
| 20260505084718 | 5 | 269 | 24.1 | 40.2 | 0.00 | 0.00 | 0.00 | 70 | 1002.2 |